Lumberton, NC

9:54 PM EDT on April 23, 2018 (GMT -0400)
Lumberton Municipal

Weather History for KLBT - January, 2014

Change the Weather History Date:

Sunday, January 19, 2014

  Actual Average Record
Temperature  
Mean Temperature 43 °F 43 °F  
Max Temperature 56 °F 54 °F 75 °F (2001)
Min Temperature 29 °F 33 °F 12 °F (2005)
Degree Days  
Heating Degree Days 22 22  
Month to date heating degree days 416 417  
Since 1 July heating degree days 1413 1467  
Cooling Degree Days 0 0  
Month to date cooling degree days 0 0  
Year to date cooling degree days 0 0  
Moisture  
Dew Point 26 °F    
Average Humidity 59    
Maximum Humidity 82    
Minimum Humidity 35    
Precipitation  
Precipitation T in 0.10 in 0.77 in (2008)
Month to date precipitation 2.75 1.64  
Year to date precipitation 2.75 1.64  
Sea Level Pressure  
Sea Level Pressure 29.99 in    
Wind  
Wind Speed 8 mph (SW)    
Max Wind Speed 20 mph    
Max Gust Speed 24 mph    
Visibility 10 miles    
Events      
T = Trace of Precipitation, MM = Missing Value Source: NWS Daily Summary

Daily Weather History Graph

Daily Weather History Graph

Search for Another Location

Airport or City:

Astronomy

Jan. 19, 2014 Rise Set
Actual Time 7:21 AM EST 5:32 PM EST
Civil Twilight 6:54 AM EST 5:59 PM EST
Nautical Twilight 6:23 AM EST 6:30 PM EST
Astronomical Twilight 5:53 AM EST 7:00 PM EST
Moon 8:58 PM EST (1/19) 9:00 AM EST (1/19)
Length of Visible Light 11h 05m
Length of Day
10h 11m
Waning Gibbous, 89% of the Moon is Illuminated
Jan 19
Waning Gibbous
Jan 24
Last Quarter
Jan 30
New
Feb 6
First Quarter
Feb 14
Full

Hourly Weather History & Observations

Time (EST) Temp. Windchill Dew Point Humidity Pressure Visibility Wind Dir Wind Speed Gust Speed Precip Events Conditions
12:54 AM 32.0 °F 27.5 °F 21.0 °F 64% 30.06 in 10.0 mi SSW 4.6 mph - N/A   Clear
1:54 AM 33.1 °F 27.7 °F 19.9 °F 59% 30.04 in 10.0 mi SSW 5.8 mph - N/A   Clear
2:54 AM 34.0 °F 28.0 °F 19.9 °F 56% 30.04 in 10.0 mi SSW 6.9 mph - N/A   Clear
3:54 AM 35.1 °F 28.6 °F 19.9 °F 54% 30.02 in 10.0 mi SW 8.1 mph - N/A   Scattered Clouds
4:54 AM 37.0 °F 31.6 °F 19.9 °F 50% 30.00 in 10.0 mi SSW 6.9 mph - N/A   Overcast
5:54 AM 37.0 °F 31.0 °F 19.9 °F 50% 29.99 in 10.0 mi SSW 8.1 mph - N/A   Overcast
6:54 AM 37.9 °F 32.7 °F 21.0 °F 51% 30.00 in 10.0 mi SSW 6.9 mph - N/A   Overcast
7:54 AM 37.9 °F 32.7 °F 21.0 °F 51% 30.00 in 10.0 mi SSW 6.9 mph - N/A   Overcast
8:54 AM 39.0 °F 34.0 °F 21.9 °F 50% 30.01 in 10.0 mi SW 6.9 mph - N/A   Overcast
9:54 AM 37.9 °F 33.5 °F 28.0 °F 68% 30.03 in 10.0 mi SW 5.8 mph - 0.00 in   Mostly Cloudy
10:54 AM 45.0 °F 38.9 °F 28.0 °F 52% 30.02 in 10.0 mi WSW 12.7 mph 20.7 mph N/A   Partly Cloudy
11:54 AM 48.0 °F - 28.9 °F 48% 30.00 in 10.0 mi WSW 11.5 mph - N/A   Clear
12:54 PM 51.1 °F - 28.9 °F 43% 29.96 in 10.0 mi SW 12.7 mph - N/A   Clear
1:54 PM 53.1 °F - 28.9 °F 40% 29.94 in 10.0 mi WSW 13.8 mph 20.7 mph N/A   Clear
2:54 PM 55.0 °F - 28.0 °F 35% 29.94 in 10.0 mi West 12.7 mph - N/A   Clear
3:54 PM 55.9 °F - 28.0 °F 34% 29.94 in 10.0 mi West 11.5 mph 20.7 mph N/A   Clear
4:54 PM 54.0 °F - 28.0 °F 37% 29.95 in 10.0 mi West 11.5 mph - N/A   Clear
5:54 PM 48.9 °F - 28.9 °F 46% 29.97 in 10.0 mi West 6.9 mph - N/A   Clear
6:54 PM 46.9 °F - 28.0 °F 48% 29.97 in 10.0 mi SW 4.6 mph - N/A   Clear
7:54 PM 41.0 °F 37.1 °F 30.0 °F 65% 29.99 in 10.0 mi West 5.8 mph - N/A   Clear
8:54 PM 37.0 °F 34.5 °F 30.9 °F 79% 29.99 in 10.0 mi WSW 3.5 mph - N/A   Clear
9:54 PM 36.0 °F 33.3 °F 30.0 °F 79% 30.00 in 10.0 mi SW 3.5 mph - N/A   Clear
10:54 PM 37.0 °F 34.5 °F 30.0 °F 76% 30.00 in 10.0 mi South 3.5 mph - N/A   Clear
11:54 PM 39.0 °F 34.8 °F 28.9 °F 67% 29.97 in 10.0 mi SW 5.8 mph - N/A   Clear